Regional Weather Roundup
Issued by NWS Sterling, VA

Home | Current Version | Previous Version | Graphics & Text | Print | Product List | Glossary On
Versions: 1 2 3 4 5 6 7 8 9 10 11 12 13 14 15 16 17 18 19 20 21 22 23 24 25 26 27 28 29 30 31 32 33 34 35 36 37 38 39 40 41 42 43 44 45 46 47 48 49 50
000
ASUS41 KLWX 271910
RWRLWX

REGIONAL WEATHER ROUNDUP
NATIONAL WEATHER SERVICE BALTIMORE MD/WASHINGTON DC
300 PM EDT TUE SEP 27 2016

Note: "FAIR" indicates few or no clouds below 12,000 feet
with no significant weather and/or obstructions to visibility.
 TC=TEMPERATURE CELSIUS

 * =Non NWS site. Station does not report precipitation (e.g. rain,
    snow, etc.), thunder, or fog.

DCZ001-MDZ009-015-VAZ040>042-051-053>054-272000-
WASHINGTON METRO

CITY           SKY/WX    TMP DP  RH WIND       PRES   REMARKS
WASHINGTON NAT MOSUNNY   76  52  43 S5        29.92F
DULLES         MOSUNNY   76  49  38 VRB5      29.91F
ANDREWS AFB    SUNNY     73  55  53 VRB1      29.91F
FT BELVOIR     MOSUNNY   74  57  54 SE5       29.91F
QUANTICO       MOSUNNY   74  52  46 CALM      29.92F
COLLEGE PARK*  MOSUNNY   72  48  43 CALM      29.91F
LEESBURG*      SUNNY     77  52  41 S6        29.92F
MANASSAS*      SUNNY     75  54  46 S6        29.92F
GAITHERSBURG*  SUNNY     73  48  40 S3        29.95F

$$

MDZ006>007-011-014-272000-
BALTIMORE METRO

CITY           SKY/WX    TMP DP  RH WIND       PRES   REMARKS
BWI AIRPORT    MOSUNNY   74  52  46 SE5       29.90F
MD SCIENCE CTR   N/A     75  53  46 MISG      29.91F
MARTIN STATE   MOSUNNY   73  64  73 SE8       29.93F
ANNAPOLIS      MOSUNNY   71  61  70 SE8       29.91F
FORT MEADE*    SUNNY     73  54  49 E3        29.93F

$$

MDZ012-015-019>023-272000-
MARYLAND EASTERN SHORE

CITY           SKY/WX    TMP DP  RH WIND       PRES   REMARKS
OCEAN CITY     LGT RAIN  71  66  84 CALM      29.93F
SALISBURY      CLOUDY    69  66  90 N5        29.92F
BAY BRIDGE AP* CLOUDY    72  63  73 MISG      29.91F
CAMBRIDGE*     PTSUNNY   68  63  83 N3        29.92F
EASTON*        PTSUNNY   72  63  73 SE5       29.96F

$$

MDZ017>025-272000-
SOUTHERN MARYLAND

CITY           SKY/WX    TMP DP  RH WIND       PRES   REMARKS
PATUXENT RIVER CLOUDY    70  61  73 E3        29.92F
ST INIGOES     CLOUDY    70  65  84 NE5       29.91F
LEONARDTOWN*   CLOUDY    68  63  83 CALM      29.94S

$$

MDZ003>005-272000-
NORTH CENTRAL MARYLAND

CITY           SKY/WX    TMP DP  RH WIND       PRES   REMARKS
FREDERICK*     SUNNY     77  48  36 S5        29.94F
HAGERSTOWN APT SUNNY     76  41  28 W12       29.91F

$$

MDZ501>502-272000-
WESTERN MARYLAND

CITY           SKY/WX    TMP DP  RH WIND       PRES   REMARKS
OAKLAND*       SUNNY     63  37  39 W8        29.96F
CUMBERLAND*    SUNNY     77  37  24 S3        29.92F

$$

VAZ025>031-272000-
SHENANDOAH VALLEY

CITY           SKY/WX    TMP DP  RH WIND       PRES   REMARKS
WINCHESTER*    SUNNY     77  45  31 W3        29.90F
FRONT ROYAL*   FAIR      75  55  50 S6        29.89F
LURAY*         FAIR      77  54  44 CALM      29.90F
NEW MARKET*    FAIR     N/A N/A N/A CALM      29.89F
STAUNTON*      SUNNY     76  44  31 SW6       29.92F
WAYNESBORO*    FAIR      76  49  39 SW6       29.92F

$$

WVZ021-048>050-054>055-272000-
EASTERN WEST VIRGINIA PANHANDLE

CITY           SKY/WX    TMP DP  RH WIND       PRES   REMARKS
MARTINSBURG    SUNNY     76  38  25 CALM      29.89F
PETERSBURG*    SUNNY     79  35  20 W3        29.89F

$$

VAZ036>039-050-272000-
CENTRAL FOOTHILLS

CITY           SKY/WX    TMP DP  RH WIND       PRES   REMARKS
CHARLOTTESVILL MOSUNNY   77  62  59 SE7       29.90F
CULPEPER*      MOSUNNY   76  57  52 S5        29.93S
ORANGE*          N/A     75  63  64 NE6       29.93F
GORDONSVILLE*  NOT AVBL
WARRENTON*     FAIR      76  48  37 SE7       29.91F

$$

VAZ055>057-272000-
NORTH AND CENTRAL PIEDMONT

CITY           SKY/WX    TMP DP  RH WIND       PRES   REMARKS
FREDERICKSBRG* PTSUNNY   73  57  57 SE7       29.91F
STAFFORD*      SUNNY     74  54  49 E7        29.96F

$$

NCZ024-NYZ072-PAZ021-071-VAZ022-071-272000-
OTHER REGIONAL OBSERVATIONS

CITY           SKY/WX    TMP DP  RH WIND       PRES   REMARKS
NEW YORK CITY  CLOUDY    74  55  51 VRB3      29.92F
PHILADELPHIA   PTSUNNY   73  53  49 SW8       29.91F
PITTSBURGH     MOSUNNY   70  35  27 SW12G24   29.87F
ROANOKE        PTSUNNY   81  62  52 N6        29.91F
RICHMOND       CLOUDY    70  66  87 VRB3      29.91F
RALEIGH        CLOUDY    77  68  73 VRB3      29.91F

$$

ANZ530>537-272000-
MARINE OBSERVATIONS

STATION/POSITION TIME  TEMP    WIND        PRES
                       AIR SEA DIR/SP/G
                 (UTC) (F)     (DEG/KT/KT) (MB)
THOMAS PT LIGHT  1900   70 74   90/  2/  2 1014.2F
BALT KEY BRIDGE  1848   69     120/  7/  9 1012.9F
COVE POINT       1848   67      90/  3/  5 1013.9F
LEWISETTA        1848   69 74  130/  6/  8 1012.8F
SOLOMONS ISLAND  1842   68 75   60/  4/  6   N/A
PINEY POINT      1848          100/  2/  2   N/A

$$




USA.gov is the U.S. government's official web portal to all federal, state and local government web resources and services.